Regional Weather Roundup
Issued by NWS Nashville, TN

Home | Current Version | Previous Version | Text Only | Print | Product List | Glossary On
Versions: 1 2 3 4 5 6 7 8 9 10 11 12 13 14 15 16 17 18 19 20 21 22 23 24 25 26 27 28 29 30 31 32 33 34 35 36 37 38 39 40 41 42 43 44 45 46 47 48 49
328
ASUS44 KOHX 241210
RWROHX
MIDDLE TENNESSEE HOURLY WEATHER ROUNDUP
NATIONAL WEATHER SERVICE NASHVILLE TN
700 AM CDT TUE MAY 24 2016

NOTE: "FAIR" INDICATES FEW OR NO CLOUDS BELOW 12,000 FEET WITH
NO SIGNIFICANT WEATHER AND/OR OBSTRUCTIONS TO VISIBILITY.

* THESE REPORTS ARE NOT UNDER NWS QUALITY CONTROL AND MAY NOT
  REPORT WEATHER SUCH AS PRECIPITATION AND FOG.


TNZ005>011-023>034-057-059-062>066-078-080-241300
...NORTHERN MIDDLE TENNESSEE...

CITY           SKY/WX    TMP DP  RH WIND       PRES   REMARKS
CLARKSVILLE    SUNNY     58  54  86 E5        30.07R
CROSSVILLE     SUNNY     57  49  74 CALM      30.16R
DICKSON        SUNNY     64  54  68 CALM      30.08R
LEBANON        SUNNY     55  50  83 CALM      30.08
NASHVILLE      MOSUNNY   59  53  80 CALM      30.10R
SMYRNA         SUNNY     56  53  89 CALM      30.11R
SPARTA         SUNNY     54  52  94 CALM      30.11R
$$
TNZ056-058-060-061-075>077-079-093>097-241300
...SOUTHERN MIDDLE TENNESSEE...

CITY           SKY/WX    TMP DP  RH WIND       PRES   REMARKS
COLUMBIA       SUNNY    N/A N/A N/A CALM      30.08R
FAYETTEVILLE   SUNNY     61  54  77 CALM      30.11R
LEWISBURG      SUNNY     55  53  93 CALM      30.09R
MCMINNVILLE    SUNNY     54  54 100 CALM      30.12R
SHELBYVILLE    SUNNY     61  54  77 SE3       30.11R
TULLAHOMA      SUNNY     57  55  94 E3        30.12R
WINCHESTER     SUNNY     61  52  72 SE3       30.11S
$$


...KEY TO REMARKS...
VSB - VISIBILITY IN MILES
WCI - WIND CHILL INDEX
HX  - HEAT INDEX





USA.gov is the U.S. government's official web portal to all federal, state and local government web resources and services.